Mitchell, SD

12:56 PM CDT on September 24, 2017 (GMT -0500)
Mitchell Municipal

Weather History for KMHE - December, 2013

Change the Weather History Date:

Monday, December 23, 2013

  Actual Average Record
Temperature  
Mean Temperature -8 °F 19 °F  
Max Temperature -1 °F 28 °F 57 °F (1936)
Min Temperature -15 °F 11 °F -30 °F (1990)
Degree Days  
Heating Degree Days 73 46  
Month to date heating degree days 1216 998  
Since 1 July heating degree days 2724 2566  
Cooling Degree Days 0 0  
Month to date cooling degree days 0 0  
Year to date cooling degree days 946 824  
Moisture  
Dew Point -18 °F    
Average Humidity 65    
Maximum Humidity 79    
Minimum Humidity 51    
Precipitation  
Precipitation 0.00 in 0.01 in 0.88 in (1987)
Month to date precipitation 0.50 0.36  
Year to date precipitation 26.16 21.43  
Snow  
Snow 0.00 in - 12.00 in (1987)
Month to date snowfall 9.2  
Since 1 July snowfall 13.2  
Snow Depth 3.00 in    
Sea Level Pressure  
Sea Level Pressure 30.66 in    
Wind  
Wind Speed 8 mph (WNW)    
Max Wind Speed 15 mph    
Max Gust Speed 18 mph    
Visibility 10 miles    
Events      
T = Trace of Precipitation, MM = Missing Value Source: NWS Daily Summary

Daily Weather History Graph

Daily Weather History Graph

Search for Another Location

Airport or City:

Trip Planner

Search our weather history database for the weather conditions in past years. The results will help you decide how hot, cold, wet, or windy it might be!

Date:

Astronomy

Dec. 23, 2013 Rise Set
Actual Time 8:03 AM CST 4:59 PM CST
Civil Twilight 7:30 AM CST 5:31 PM CST
Nautical Twilight 6:54 AM CST 6:08 PM CST
Astronomical Twilight 6:19 AM CST 6:43 PM CST
Moon 11:21 PM CST (12/23) 11:19 AM CST (12/23)
Length of Visible Light 10h 00m
Length of Day
8h 55m
Waning Gibbous, 68% of the Moon is Illuminated
Dec 23
Waning Gibbous
Dec 25
Last Quarter
Jan 1
New
Jan 7
First Quarter
Jan 15
Full

Hourly Weather History & Observations

Time (CST) Temp. Windchill Dew Point Humidity Pressure Visibility Wind Dir Wind Speed Gust Speed Precip Events Conditions
12:53 AM -9.0 °F -28.4 °F -15.0 °F 75% 30.59 in 10.0 mi NW 11.5 mph - N/A   Clear
1:53 AM -11.0 °F -29.9 °F -16.1 °F 78% 30.60 in 10.0 mi NW 10.4 mph - N/A   Clear
2:53 AM -11.9 °F -29.9 °F -18.0 °F 74% 30.62 in 10.0 mi NW 9.2 mph - N/A   Clear
3:53 AM -11.9 °F -29.9 °F -18.0 °F 74% 30.64 in 10.0 mi WNW 9.2 mph - N/A   Clear
4:53 AM -13.0 °F -31.3 °F -18.9 °F 75% 30.65 in 10.0 mi WNW 9.2 mph - N/A   Clear
5:53 AM -13.0 °F -31.3 °F -20.0 °F 71% 30.67 in 10.0 mi WNW 9.2 mph - N/A   Clear
6:53 AM -14.1 °F -31.3 °F -20.9 °F 71% 30.69 in 10.0 mi WNW 8.1 mph - N/A   Clear
7:53 AM -14.1 °F -29.9 °F -22.0 °F 68% 30.71 in 10.0 mi WNW 6.9 mph - N/A   Clear
8:53 AM -14.1 °F -29.9 °F -22.0 °F 68% 30.73 in 10.0 mi West 6.9 mph - N/A   Clear
9:53 AM -11.0 °F -28.8 °F -20.0 °F 64% 30.74 in 10.0 mi WNW 9.2 mph - N/A   Clear
10:53 AM -9.0 °F -25.2 °F -18.0 °F 65% 30.75 in 10.0 mi NW 8.1 mph - N/A   Clear
11:53 AM -6.0 °F -21.5 °F -16.1 °F 62% 30.73 in 10.0 mi NW 8.1 mph - N/A   Clear
12:53 PM -5.1 °F -19.1 °F -16.1 °F 59% 30.70 in 10.0 mi NW 6.9 mph - N/A   Clear
1:53 PM -2.9 °F -11.2 °F -15.0 °F 56% 30.69 in 10.0 mi WNW 3.5 mph - N/A   Clear
2:53 PM -2.9 °F -13.3 °F -15.0 °F 56% 30.67 in 10.0 mi NW 4.6 mph - N/A   Clear
3:53 PM -0.9 °F - -14.1 °F 54% 30.67 in 10.0 mi Calm Calm - N/A   Clear
4:53 PM -2.9 °F -11.2 °F -15.0 °F 56% 30.66 in 10.0 mi ENE 3.5 mph - N/A   Clear
5:53 PM -7.1 °F -19.9 °F -17.0 °F 62% 30.65 in 10.0 mi East 5.8 mph - N/A   Clear
6:53 PM -9.0 °F -22.3 °F -18.0 °F 65% 30.65 in 10.0 mi SSE 5.8 mph - N/A   Clear
7:53 PM -9.0 °F -23.8 °F -18.0 °F 65% 30.64 in 10.0 mi SSE 6.9 mph - N/A   Clear
8:53 PM -9.9 °F -27.5 °F -18.0 °F 68% 30.62 in 10.0 mi SSE 9.2 mph - N/A   Clear
9:53 PM -9.9 °F -27.5 °F -18.0 °F 68% 30.58 in 10.0 mi SE 9.2 mph - N/A   Clear
10:53 PM -9.0 °F -27.4 °F -18.0 °F 65% 30.56 in 10.0 mi SSE 10.4 mph - N/A   Clear
11:53 PM -6.0 °F -25.5 °F -16.1 °F 62% 30.52 in 10.0 mi SSE 12.7 mph - N/A   Clear